GW6600 Weather Reports


time (UTC)temp
C
wind
direction
speed
KPH
gust
KPH
rain 1hr
cm
rain 24hr
cm
rain mn
cm
humidity
%
barometer
mb
20260504012547 12 124 0.0 0.0 0.00 0.00 0.00 59 1018.0
20260504012045 12 124 0.0 1.6 0.00 0.00 0.00 57 1018.1
20260504011541 12 123 0.0 0.0 0.00 0.00 0.00 56 1018.0
20260504011037 12 124 0.0 0.0 0.00 0.00 0.00 56 1018.4
20260504010533 12 124 0.0 0.0 0.00 0.00 0.00 57 1018.0
20260504010029 12 123 0.0 0.0 0.00 0.00 0.00 56 1017.9
20260504005526 12 124 0.0 0.0 0.00 0.00 0.00 54 1018.0
20260504005024 12 124 0.0 0.0 0.00 0.00 0.00 54 1017.8
20260504004521 13 108 0.0 0.0 0.00 0.00 0.00 54 1018.0
20260504004018 13 108 0.0 0.0 0.00 0.00 0.00 52 1017.8
20260504003514 13 108 0.0 0.0 0.00 0.00 0.00 53 1017.8
20260504003011 13 108 0.0 0.0 0.00 0.00 0.00 52 1017.8
20260504002508 13 107 0.0 0.0 0.00 0.00 0.00 50 1017.7
20260504002006 14 107 0.0 0.0 0.00 0.00 0.00 50 1017.6
20260504001503 15 107 0.0 0.0 0.00 0.00 0.00 49 1017.7
20260504000959 15 106 0.0 0.0 0.00 0.00 0.00 48 1017.7
20260504000457 15 106 0.0 0.0 0.00 0.00 0.00 45 1017.8
20260503235954 15 155 0.0 1.6 0.00 0.00 0.00 43 1018.0
20260503235451 16 147 0.0 0.0 0.00 0.00 0.00 43 1018.0
20260503234948 16 148 0.0 1.6 0.00 0.00 0.00 41 1018.0
20260503234446 16 144 0.0 1.6 0.00 0.00 0.00 41 1017.9
20260503233944 16 140 0.0 4.8 0.00 0.00 0.00 39 1017.9
20260503233440 17 123 0.0 3.2 0.00 0.00 0.00 40 1017.8
20260503232936 17 191 3.2 3.2 0.00 0.00 0.00 38 1018.0
20260503232433 17 136 1.6 4.8 0.00 0.00 0.00 38 1018.1
20260503231932 17 154 1.6 9.7 0.00 0.00 0.00 37 1018.1
20260503231429 17 133 0.0 1.6 0.00 0.00 0.00 38 1018.3
20260503230925 17 108 1.6 1.6 0.00 0.00 0.00 37 1018.1
20260503230421 17 325 3.2 3.2 0.00 0.00 0.00 37 1018.1
20260503225919 17 91 1.6 1.6 0.00 0.00 0.00 37 1018.3
20260503225416 17 131 0.0 3.2 0.00 0.00 0.00 37 1018.4
20260503224911 17 86 1.6 3.2 0.00 0.00 0.00 35 1018.4
20260503224409 17 148 1.6 9.7 0.00 0.00 0.00 36 1018.6
20260503223906 17 211 4.8 11.3 0.00 0.00 0.00 35 1018.5
20260503223404 17 185 6.4 9.7 0.00 0.00 0.00 34 1018.5
20260503222859 18 66 3.2 4.8 0.00 0.00 0.00 36 1018.7
20260503222358 18 211 4.8 4.8 0.00 0.00 0.00 34 1018.7
20260503221856 18 141 1.6 3.2 0.00 0.00 0.00 34 1018.8
20260503221354 19 145 0.0 9.7 0.00 0.00 0.00 35 1018.6
20260503220850 18 117 0.0 3.2 0.00 0.00 0.00 34 1018.8
20260503220347 18 175 1.6 4.8 0.00 0.00 0.00 34 1018.8
20260503215844 18 195 4.8 4.8 0.00 0.00 0.00 34 1018.8
20260503215341 18 140 0.0 11.3 0.00 0.00 0.00 38 1018.9
20260503214838 18 133 1.6 11.3 0.00 0.00 0.00 35 1018.8
20260503214336 19 101 4.8 6.4 0.00 0.00 0.00 34 1018.9
20260503213833 19 179 3.2 14.5 0.00 0.00 0.00 32 1019.0
20260503213331 19 98 1.6 3.2 0.00 0.00 0.00 33 1018.9
20260503212827 19 221 6.4 9.7 0.00 0.00 0.00 34 1019.2
20260503212325 19 159 3.2 4.8 0.00 0.00 0.00 33 1019.1
20260503211822 18 108 0.0 3.2 0.00 0.00 0.00 36 1019.3
20260503211319 19 155 3.2 3.2 0.00 0.00 0.00 33 1019.2
20260503210819 19 140 0.0 9.7 0.00 0.00 0.00 32 1019.2
20260503210317 19 136 1.6 4.8 0.00 0.00 0.00 34 1019.2
20260503205811 19 183 1.6 4.8 0.00 0.00 0.00 35 1019.4
20260503205308 18 145 1.6 3.2 0.00 0.00 0.00 37 1019.6
20260503204805 18 155 3.2 4.8 0.00 0.00 0.00 33 1019.6
20260503204303 19 152 3.2 4.8 0.00 0.00 0.00 35 1019.5
20260503203800 19 174 8.0 14.5 0.00 0.00 0.00 32 1019.7
20260503203257 18 206 4.8 11.3 0.00 0.00 0.00 33 1019.7
20260503202754 19 152 3.2 4.8 0.00 0.00 0.00 33 1019.8
20260503202252 19 240 4.8 12.9 0.00 0.00 0.00 30 1020.0
20260503201749 18 152 0.0 6.4 0.00 0.00 0.00 32 1019.9
20260503201247 18 142 4.8 6.4 0.00 0.00 0.00 32 1020.1
20260503200743 18 103 0.0 4.8 0.00 0.00 0.00 37 1020.1
20260503200239 18 252 3.2 9.7 0.00 0.00 0.00 30 1020.3
20260503195736 18 189 3.2 11.3 0.00 0.00 0.00 32 1020.4
20260503195233 19 196 6.4 12.9 0.00 0.00 0.00 30 1020.6
20260503194731 19 119 1.6 11.3 0.00 0.00 0.00 31 1020.6
20260503194226 18 10 0.0 1.6 0.00 0.00 0.00 33 1020.5
20260503193723 18 239 4.8 6.4 0.00 0.00 0.00 31 1020.5
20260503193219 18 112 0.0 3.2 0.00 0.00 0.00 35 1020.7
20260503192715 18 128 1.6 4.8 0.00 0.00 0.00 34 1020.7
20260503192210 18 133 0.0 3.2 0.00 0.00 0.00 34 1020.8
20260503191707 18 175 3.2 6.4 0.00 0.00 0.00 33 1021.0
20260503191204 18 13 4.8 4.8 0.00 0.00 0.00 31 1021.0
20260503190701 17 208 1.6 6.4 0.00 0.00 0.00 34 1021.0
20260503190158 17 3 4.8 6.4 0.00 0.00 0.00 32 1021.2
20260503185655 18 256 1.6 3.2 0.00 0.00 0.00 33 1021.1
20260503185150 17 86 0.0 3.2 0.00 0.00 0.00 35 1021.2
20260503184645 17 126 1.6 3.2 0.00 0.00 0.00 36 1021.2
20260503184142 17 84 1.6 4.8 0.00 0.00 0.00 34 1021.3
20260503183638 18 142 1.6 6.4 0.00 0.00 0.00 37 1021.3
20260503183136 17 32 3.2 4.8 0.00 0.00 0.00 34 1021.2
20260503182634 17 91 0.0 1.6 0.00 0.00 0.00 36 1021.5
20260503182132 17 135 0.0 4.8 0.00 0.00 0.00 37 1021.5
20260503181628 17 113 0.0 4.8 0.00 0.00 0.00 34 1021.6
20260503181125 17 328 3.2 6.4 0.00 0.00 0.00 34 1021.8
20260503180622 17 64 3.2 6.4 0.00 0.00 0.00 36 1021.9
20260503180120 17 187 3.2 3.2 0.00 0.00 0.00 35 1022.0
20260503175616 17 228 4.8 6.4 0.00 0.00 0.00 32 1022.0
20260503175114 17 134 0.0 4.8 0.00 0.00 0.00 37 1021.9
20260503174610 16 68 1.6 3.2 0.00 0.00 0.00 32 1022.1
20260503174108 16 159 0.0 1.6 0.00 0.00 0.00 38 1022.1
20260503173602 16 142 1.6 3.2 0.00 0.00 0.00 36 1022.2
20260503173059 16 103 0.0 3.2 0.00 0.00 0.00 37 1022.4
20260503172556 16 0 4.8 6.4 0.00 0.00 0.00 34 1022.2
20260503172053 16 226 3.2 4.8 0.00 0.00 0.00 32 1022.4
20260503171550 16 118 3.2 6.4 0.00 0.00 0.00 33 1022.7
20260503171047 16 226 3.2 11.3 0.00 0.00 0.00 33 1022.8
20260503170543 16 171 3.2 4.8 0.00 0.00 0.00 36 1022.5
20260503150936 15 53 0.0 3.2 0.00 0.00 0.00 37 1023.7
20260503150433 15 96 0.0 3.2 0.00 0.00 0.00 37 1023.5
20260503131326 11 102 0.0 3.2 0.00 0.00 0.00 55 1023.5
20260503130823 11 105 0.0 1.6 0.00 0.00 0.00 54 1023.4
20260503130321 11 291 3.2 3.2 0.00 0.00 0.00 54 1023.5
20260503110714 3 116 0.0 0.0 0.00 0.00 0.00 93 1022.1
20260503110211 3 143 0.0 0.0 0.00 0.00 0.00 93 1022.1
20260503100138 3 143 0.0 0.0 0.00 0.00 0.00 91 1021.4
20260503081532 6 144 0.0 0.0 0.00 0.00 0.00 79 1021.1
20260503081030 6 144 0.0 0.0 0.00 0.00 0.00 77 1020.8
20260503080526 7 145 0.0 0.0 0.00 0.00 0.00 75 1020.6
20260503072459 8 143 0.0 0.0 0.00 0.00 0.00 69 1020.3
20260503071956 8 143 0.0 0.0 0.00 0.00 0.00 68 1020.2
20260503071453 8 143 0.0 1.6 0.00 0.00 0.00 67 1020.3
20260503070949 8 96 0.0 0.0 0.00 0.00 0.00 66 1020.1
20260503070446 8 120 0.0 0.0 0.00 0.00 0.00 66 1020.2
20260503054906 10 85 1.6 1.6 0.00 0.00 0.00 58 1020.2
20260503054402 11 61 0.0 1.6 0.00 0.00 0.00 57 1019.9
20260503053900 10 344 3.2 4.8 0.00 0.00 0.00 57 1019.9
20260503053358 10 5 1.6 3.2 0.00 0.00 0.00 58 1019.9
20260503052854 10 82 0.0 1.6 0.00 0.00 0.00 58 1020.2
20260503052351 10 119 0.0 3.2 0.00 0.00 0.00 61 1020.0
20260503051847 10 93 0.0 1.6 0.00 0.00 0.00 61 1020.1
20260503051343 10 84 0.0 1.6 0.00 0.00 0.00 60 1019.8
20260503050841 10 103 0.0 0.0 0.00 0.00 0.00 60 1019.9
20260503050337 10 103 0.0 0.0 0.00 0.00 0.00 60 1019.9
20260503045834 10 92 0.0 0.0 0.00 0.00 0.00 60 1020.0
20260503045332 10 46 0.0 0.0 0.00 0.00 0.00 59 1019.8
20260503044828 10 91 0.0 1.6 0.00 0.00 0.00 59 1019.9
20260503044325 10 111 0.0 0.0 0.00 0.00 0.00 60 1019.8
20260503043822 10 111 0.0 1.6 0.00 0.00 0.00 58 1019.8
20260503043319 11 101 0.0 1.6 0.00 0.00 0.00 59 1019.9
20260503042815 11 110 1.6 1.6 0.00 0.00 0.00 57 1019.8
20260503042312 11 106 0.0 0.0 0.00 0.00 0.00 59 1019.8
20260503041808 11 83 1.6 1.6 0.00 0.00 0.00 56 1019.6
20260503041306 11 101 0.0 0.0 0.00 0.00 0.00 56 1019.5
20260503040803 11 101 0.0 1.6 0.00 0.00 0.00 56 1019.4
20260503040301 11 86 0.0 1.6 0.00 0.00 0.00 55 1019.5
20260503035757 11 135 0.0 3.2 0.00 0.00 0.00 55 1019.6
20260503035255 11 80 0.0 3.2 0.00 0.00 0.00 53 1019.6
20260503034752 11 85 0.0 1.6 0.00 0.00 0.00 54 1019.4
20260503034249 11 118 0.0 1.6 0.00 0.00 0.00 54 1019.5
20260503033746 11 277 4.8 9.7 0.00 0.00 0.00 53 1019.5
20260503033244 11 100 0.0 1.6 0.00 0.00 0.00 53 1019.5
20260503032742 11 327 3.2 4.8 0.00 0.00 0.00 53 1019.5
20260503032240 12 160 1.6 9.7 0.00 0.00 0.00 52 1019.3
20260503031737 12 133 1.6 6.4 0.00 0.00 0.00 52 1019.6
20260503031235 12 84 0.0 1.6 0.00 0.00 0.00 52 1019.3
20260503030731 12 308 6.4 9.7 0.00 0.00 0.00 51 1019.6
20260503030228 12 101 0.0 4.8 0.00 0.00 0.00 51 1019.4
20260503025724 12 114 1.6 4.8 0.00 0.00 0.00 51 1019.2
20260503025222 12 132 1.6 6.4 0.00 0.00 0.00 51 1019.2
20260503024719 12 92 0.0 1.6 0.00 0.00 0.00 51 1019.2
20260503024216 12 127 0.0 4.8 0.00 0.00 0.00 51 1019.2
20260503023713 12 122 0.0 1.6 0.00 0.00 0.00 52 1019.0
20260503023209 12 91 1.6 4.8 0.00 0.00 0.00 51 1019.0
20260503022706 12 103 0.0 1.6 0.00 0.00 0.00 51 1019.1
20260503022205 12 114 0.0 0.0 0.00 0.00 0.00 54 1019.0
20260503021702 11 76 1.6 4.8 0.00 0.00 0.00 54 1018.9
20260503021159 12 110 0.0 0.0 0.00 0.00 0.00 52 1018.9
20260503020656 12 110 0.0 0.0 0.00 0.00 0.00 52 1019.0
20260503020154 12 110 0.0 0.0 0.00 0.00 0.00 50 1018.8
20260503015650 12 35 3.2 6.4 0.00 0.00 0.00 49 1018.8
20260503015147 12 52 1.6 4.8 0.00 0.00 0.00 49 1018.6
20260503014643 12 92 0.0 3.2 0.00 0.00 0.00 49 1018.5
20260503014141 12 88 1.6 1.6 0.00 0.00 0.00 50 1018.6
20260503013638 12 90 0.0 1.6 0.00 0.00 0.00 50 1018.5
20260503013136 12 100 0.0 1.6 0.00 0.00 0.00 52 1018.5